Regional Weather Roundup
Issued by NWS

Home | Current Version | Previous Version | Text Only | Print | Product List | Glossary On
Versions: 1 2 3 4 5 6 7 8 9 10 11 12 13 14 15 16 17 18 19 20 21 22 23 24 25 26 27 28 29 30 31 32 33 34 35 36 37 38 39 40 41 42 43 44 45 46 47 48 49 50
000
ASUS46 KLOX 220512
RWRCA

SOUTHERN CALIFORNIA WEATHER ROUNDUP
NATIONAL WEATHER SERVICE OXNARD CALIFORNIA
1000 PM PDT TUE OCT 21 2014

NOTE: "FAIR" INDICATES FEW OR NO CLOUDS BELOW 12,000 FEET WITH NO
SIGNIFICANT WEATHER AND/OR OBSTRUCTIONS TO VISIBILITY.

  -  STATIONS PRECEEDED BY AN ASTERISK (*) ARE NOT NWS OR FAA
     STATIONS AND ARE NOT SUBJECT TO NWS AND FAA QUALITY CONTROL.

CAZ041-042-087-220600-
LA AND ORANGE COUNTY COASTAL AREAS


CITY           SKY/WX    TMP DP  RH WIND       PRES   REMARKS
L.A. DOWNTOWN  CLEAR     67  62  84 CALM      29.86R
L.A. AIRPORT   CLEAR     68  62  81 CALM      29.87R
LONG BEACH     CLEAR     68  62  81 CALM      29.87R

CITY           SKY/WX    TMP DP  RH WIND       PRES   REMARKS
AVALON           N/A     61 N/A N/A SE3         N/A
FULLERTON      CLEAR     66  56  70 CALM      29.87R
*GETTY CENTER    N/A     64  54  68 NE5         N/A
HAWTHORNE      CLEAR     69  62  78 CALM      29.87R
*LEO CARRILLO    N/A     62  45  53 N6          N/A
*LOS ALAMITOS  CLEAR     63  59  86 SW2       29.87R
*REDONDO BEACH   N/A     63  58  84 CALM      29.87R
SANTA ANA      PTCLDY    69  63  81 CALM      29.87R
STA MONICA APT CLEAR     67  59  75 CALM      29.88R
*STA MON PIER    N/A     67  62  83 N1        29.86S
*UCLA            N/A     63  59  88 NE2       29.85S

$$

CAZ547-548-048-220600-
LA COUNTY VALLEYS AND INLAND EMPIRE


CITY           SKY/WX    TMP DP  RH WIND       PRES   REMARKS
BURBANK        CLEAR     66  58  75 CALM      29.88R
VAN NUYS       CLEAR     68  51  54 N8        29.88R

CITY           SKY/WX    TMP DP  RH WIND       PRES   REMARKS
CORONA AIRPORT CLEAR     59  55  86 CALM      29.89R
*CHATSWORTH      N/A     65  54  67 CALM      29.85R
CHINO          CLEAR     61  55  81 CALM      29.90R
*CLAREMONT       N/A     59  48  66 N2          N/A
MARCH AFB      CLEAR     60  55  82 CALM      29.91R
*NORTHRIDGE      N/A     66  50  55 NW1         N/A
ONTARIO        PTCLDY    67  56  67 CALM      29.89R
*PASADENA        N/A     66  61  82 E1          N/A
RIVERSIDE      CLEAR     66  56  70 CALM      29.89R
SAN BERNARDINO NOT AVBL
*SAN RAFAEL HI   N/A     65  59  80 SW5         N/A
*SAUGUS          N/A     64  38  38 NE3G28      N/A
*WHITEMAN AP   NOT AVBL
*WHITTIER HILL   N/A     62  60  94 CALM        N/A
*WOODLAND HILL   N/A     63  52  67 SE1         N/A

$$

CAZ054-055-220600-
LA AND SAN BERNARDINO COUNTY MOUNTAINS


CITY           SKY/WX    TMP DP  RH WIND       PRES   REMARKS
*ACTON           N/A     58  42  54 CALM        N/A
*BIG BEAR AIRP CLEAR     36   7  30 CALM      30.15R
*BIG PINES       N/A     54   3  12 CALM        N/A
MT WILSON NWS    N/A     57  14  18 S1          N/A
SANDBERG       CLEAR     53  42  66 NW32      30.03F
*WARM SPRINGS    N/A     59  24  26 NW10G25     N/A

$$

CAZ028-029-059-060-099-220600-
ANTELOPE VALLEY AND SURROUNDING AREAS


CITY           SKY/WX    TMP DP  RH WIND       PRES   REMARKS
LANCASTER      CLEAR     59  42  53 W20       29.95R
PALMDALE       CLEAR     62  38  40 NW13      29.95R
*POPPY PARK      N/A     59  39  47 W17G35      N/A

CITY           SKY/WX    TMP DP  RH WIND       PRES   REMARKS
29 PALMS       CLEAR     69  35  28 CALM      29.95R
BARSTOW/DAGGET CLEAR     67  35  30 W3        29.91R
BISHOP         CLEAR     58  19  22 NW8       29.99R
CHINA LAKE     PTCLDY    64  36  35 S9        29.89R
EDWARDS AFB    MOCLDY    59  40  49 SW10      29.93R
MOJAVE         FAIR      59  34  38 NW21G30   29.93R
NEEDLES        PTCLDY    77  37  23 W8        29.81R
VICTORVILLE    CLEAR     61  36  39 W12G18    29.97R

$$

CAZ039-040-220600-
VENTURA AND SANTA BARBARA COUNTY COAST


CITY           SKY/WX    TMP DP  RH WIND       PRES   REMARKS
CAMARILLO      CLEAR     63  54  72 CALM      29.86R
OXNARD AIRPORT CLEAR     64  58  80 E3        29.86R
*POINT MUGU    PTCLDY    64  58  80 N5        29.87R
SBA APT/GOLETA CLEAR     65  57  75 E5        29.86R
*SANTA BARBARA   N/A     66  57  74 CALM      29.94R
*VENTURA         N/A     62  55  76 NE3       29.90S

$$

CAZ044-045-220600-
VENTURA COUNTY VALLEYS


CITY           SKY/WX    TMP DP  RH WIND       PRES   REMARKS
*SIMI VALLEY     N/A     60  52  74 CALM      29.84R
*OJAI            N/A     57  50  78 CALM      29.82S
*FILLMORE        N/A     59  51  73 CALM      29.78S

$$

CAZ053-220600-
VENTURA COUNTY MOUNTAINS


CITY           SKY/WX    TMP DP  RH WIND       PRES   REMARKS
*LOCKWOOD VLY    N/A     37  34  87 MISG        N/A
*ROSE VALLEY     N/A     43  34  70 MISG        N/A

$$

CAZ034-035-036-220600-
CENTRAL COAST AND SANTA YNEZ VALLEY


CITY           SKY/WX    TMP DP  RH WIND       PRES   REMARKS
SAN LUIS OBISP CLEAR     61  49  64 CALM      29.97R
SANTA MARIA    CLEAR     63  49  60 NW14      29.95R

CITY           SKY/WX    TMP DP  RH WIND       PRES   REMARKS
*CAL POLY SLO    N/A     68  41  37 NE7G22      N/A
*LOMPOC        CLEAR     61  50  67 W8        29.93R
*PISMO BEACH     N/A     63  47  57 NE5       29.97R
*SANTA YNEZ    FAIR      57  46  67 CALM      29.92R

$$

CAZ037-038-051-220600-
SAN LUIS OBISPO COUNTY INTERIOR AND CUYAMA VALLEY


CITY           SKY/WX    TMP DP  RH WIND       PRES   REMARKS
*CUYAMA          N/A     52  40  64 E1        29.99R
PASO ROBLES    CLEAR     60  45  57 NW8       30.01R

$$

CAZ032-033-061-220600-
SOUTHERN DESERTS


CITY           SKY/WX    TMP DP  RH WIND       PRES   REMARKS
BLYTHE         CLEAR     80  39  23 SW8       29.79R
IMPERIAL       CLEAR     79  50  36 SW9       29.77R
PALM SPRINGS   CLEAR     82  44  26 NW6       29.82R
THERMAL        CLEAR     69  49  48 NW7       29.77R

$$

ELSEWHERE ACROSS THE WESTERN UNITED STATES AND MEXICO


CITY           SKY/WX    TMP DP  RH WIND       PRES   REMARKS
DENVER, CO     CLOUDY    57  39  51 W8        29.96F
GRAND CANYON,  CLEAR     40  30  67 CALM      30.14R
HONOLULU, HI   MOCLDY    81  72  74 E10       29.97R
KAHULUI, MAUI  NOT AVBL
LAKE TAHOE, CA CLEAR     38  31  76 CALM      30.12R
LAS VEGAS, NV  MOCLDY    73  22  14 S12       29.83R
MAMMOTH LAKES, FAIR      39  10  30 CALM      30.13R
MEXICO CITY, M MOCLDY    59  50  72 N6        30.27S
PHOENIX, AZ    PTCLDY    79  54  41 CALM      29.83R
PORTLAND, OR   CLOUDY    57  51  80 E13       29.87F
RENO, NV       PTCLDY    50  30  46 CALM      30.09S
SALT LAKE CITY PTCLDY    49  36  61 NW8       30.07R
SAN DIEGO, CA  PTCLDY    68  61  78 CALM      29.90R
SAN FRANCISCO, PTCLDY    63  57  81 W13       30.05R
SAN JOSE, CA   CLEAR     59  49  69 W3        30.05R
SEATTLE, WA    CLOUDY    59  45  59 S13G22    29.80F
TIJUANA, MEX   CLEAR     64  57  77 CALM      29.91R

$$

STATION/POSITION TIME  TEMP    WIND        PRES    VSBY  WAVE
                       AIR SEA DIR/SP/G                  HT/PER
                 (UTC) (F)     (DEG/KT/KT) (MB)    (MI)  (FT/S)
POINT ARGUELLO B NOT AVBL
WEST SANTA BARBA 0500   64 64  330/ 25/ 31 1011.2R        13/15
POINT CONCEPTION NOT AVBL
EAST SANTA BARBA 0500   68 65  320/  6/  8 1011.1
SANTA MONICA BAY 0500   69 70  100/  6/  8 1010.9R         7/11



USA.gov is the U.S. government's official web portal to all federal, state and local government web resources and services.